Weather History for KVLD - April, 2013

Change the Weather History Date:

Thursday, April 11, 2013

  Actual Average Record
Temperature  
Mean Temperature 76 °F 65 °F  
Max Temperature 88 °F 78 °F 90 °F (1999)
Min Temperature 64 °F 51 °F 44 °F (2003)
Degree Days  
Heating Degree Days 0 3  
Month to date heating degree days 14 37  
Since 1 July heating degree days 1157 1603  
Cooling Degree Days 11 2  
Month to date cooling degree days 53 22  
Year to date cooling degree days 156 65  
Growing Degree Days 25 (Base 50)    
Moisture  
Dew Point 66 °F    
Average Humidity 68    
Maximum Humidity 87    
Minimum Humidity 48    
Precipitation  
Precipitation 0.01 in 0.12 in 0.77 in (1949)
Month to date precipitation 1.72 1.26  
Year to date precipitation 10.16 14.86  
Sea Level Pressure  
Sea Level Pressure 29.91 in    
Wind  
Wind Speed 8 mph (South)    
Max Wind Speed 18 mph    
Max Gust Speed 33 mph    
Visibility 10 miles    
Events      
T = Trace of Precipitation, MM = Missing Value Source: NWS Daily Summary

Daily Weather History Graph

Daily Weather History Graph

Search for Another Location

Airport or City:

Trip Planner

Search our weather history database for the weather conditions in past years. The results will help you decide how hot, cold, wet, or windy it might be!

Date:

Astronomy

Apr. 11, 2013 Rise Set
Actual Time 7:09 AM EDT 7:58 PM EDT
Civil Twilight 6:45 AM EDT 8:23 PM EDT
Nautical Twilight 6:16 AM EDT 8:52 PM EDT
Astronomical Twilight 5:46 AM EDT 9:22 PM EDT
Moon 7:46 AM EDT (4/11) 9:24 PM EDT (4/11)
Length of Visible Light 13h 38m
Length of Day
12h 48m
New Moon, 2% of the Moon is Illuminated
Apr 11
New Moon
Apr 18
First Quarter
Apr 25
Full
May 2
Last Quarter
May 9
New

Hourly Weather History & Observations

Time (EDT) Temp. Heat Index Dew Point Humidity Pressure Visibility Wind Dir Wind Speed Gust Speed Precip Events Conditions
12:53 AM 71.1 °F - 62.1 °F 73% 29.99 in 10.0 mi SE 5.8 mph - N/A   Clear
1:53 AM 69.1 °F - 62.1 °F 78% 29.99 in 10.0 mi SE 4.6 mph - N/A   Clear
2:53 AM 66.9 °F - 61.0 °F 81% 29.97 in 10.0 mi Calm Calm - N/A   Clear
3:53 AM 66.9 °F - 62.1 °F 84% 29.96 in 10.0 mi SE 3.5 mph - N/A   Clear
4:53 AM 64.9 °F - 61.0 °F 87% 29.96 in 10.0 mi SE 3.5 mph - N/A   Clear
5:53 AM 64.9 °F - 61.0 °F 87% 29.95 in 7.0 mi Calm Calm - N/A   Clear
6:53 AM 66.0 °F - 62.1 °F 87% 29.96 in 6.0 mi South 4.6 mph - N/A   Clear
7:53 AM 69.1 °F - 64.9 °F 87% 29.99 in 7.0 mi South 6.9 mph - N/A   Overcast
8:53 AM 73.9 °F - 68.0 °F 82% 29.99 in 10.0 mi South 9.2 mph - N/A   Overcast
9:42 AM 75.2 °F - 68.0 °F 78% 29.97 in 10.0 mi South 13.8 mph - N/A   Overcast
9:53 AM 75.9 °F - 68.0 °F 76% 29.99 in 10.0 mi South 11.5 mph 17.3 mph N/A   Overcast
10:38 AM 78.8 °F - 68.0 °F 69% 29.97 in 10.0 mi South 16.1 mph 23.0 mph N/A   Overcast
10:53 AM 79.0 °F - 68.0 °F 69% 29.99 in 10.0 mi South 13.8 mph 19.6 mph N/A   Overcast
11:53 AM 82.9 °F 85.8 °F 68.0 °F 60% 29.98 in 10.0 mi SSW 6.9 mph - N/A   Mostly Cloudy
12:01 PM 82.4 °F 85.4 °F 68.0 °F 62% 29.96 in 10.0 mi South 9.2 mph - N/A   Mostly Cloudy
12:11 PM 82.4 °F 84.6 °F 66.2 °F 58% 29.96 in 10.0 mi Variable 6.9 mph 17.3 mph N/A   Mostly Cloudy
1:53 PM 84.0 °F 87.8 °F 69.1 °F 61% 29.94 in 10.0 mi SSW 6.9 mph - 0.01 in   Mostly Cloudy
2:00 PM 86.0 °F 89.4 °F 68.0 °F 55% 29.92 in 10.0 mi South 9.2 mph 17.3 mph N/A   Scattered Clouds
2:53 PM 86.0 °F 89.4 °F 68.0 °F 55% 29.91 in 10.0 mi South 9.2 mph 20.7 mph N/A   Mostly Cloudy
3:53 PM 86.0 °F 88.2 °F 66.0 °F 51% 29.86 in 10.0 mi SSW 9.2 mph 18.4 mph N/A   Scattered Clouds
4:53 PM 86.0 °F 87.6 °F 64.9 °F 49% 29.85 in 10.0 mi SSW 11.5 mph 23.0 mph N/A   Mostly Cloudy
5:53 PM 84.9 °F 86.6 °F 64.9 °F 51% 29.83 in 10.0 mi SSW 8.1 mph 20.7 mph N/A   Mostly Cloudy
6:53 PM 82.0 °F 84.1 °F 66.0 °F 58% 29.82 in 10.0 mi SSW 8.1 mph 17.3 mph N/A   Scattered Clouds
7:53 PM 80.1 °F 82.3 °F 66.9 °F 64% 29.81 in 10.0 mi South 13.8 mph 24.2 mph N/A   Mostly Cloudy
8:34 PM 78.8 °F - 66.2 °F 65% 29.78 in 10.0 mi South 13.8 mph 20.7 mph N/A   Mostly Cloudy
8:53 PM 78.1 °F - 68.0 °F 71% 29.79 in 10.0 mi South 6.9 mph 16.1 mph N/A   Mostly Cloudy
9:53 PM 77.0 °F - 68.0 °F 74% 29.81 in 10.0 mi SSW 8.1 mph - N/A   Mostly Cloudy
10:20 PM 77.0 °F - 68.0 °F 74% 29.80 in 10.0 mi SSW 9.2 mph - N/A   Scattered Clouds
10:53 PM 77.0 °F - 68.0 °F 74% 29.83 in 10.0 mi South 8.1 mph 17.3 mph N/A   Clear
11:53 PM 77.0 °F - 68.0 °F 74% 29.88 in 10.0 mi SSW 5.8 mph - N/A   Overcast